Regional Weather Roundup
Issued by NWS

Home | Current Version | Previous Version | Text Only | Print | Product List | Glossary Off
Versions: 1 2 3 4 5 6 7 8 9 10 11 12 13 14 15 16 17 18 19 20 21 22 23 24 25 26 27 28 29 30 31 32 33 34 35 36 37 38 39 40 41 42 43 44 45 46 47 48 49 50

000
ASUS43 KLMK 302210
RWRKY
KENTUCKY REGIONAL WEATHER ROUNDUP
NATIONAL WEATHER SERVICE LOUISVILLE KY
600 PM EDT WED JUL 30 2014

NOTE "FAIR" INDICATES FEW OR NO CLOUDS BELOW 12,000 FEET
WITH NO SIGNIFICANT WEATHER AND/OR OBSTRUCTIONS TO VISIBILITY.

KYZ001>023-026-027-061>063-070>075-302300-
WESTERN AND SOUTH CENTRAL KENTUCKY

CITY           SKY/WX    TMP DP  RH WIND       PRES   REMARKS
PADUCAH        CLOUDY    79  59  50 W3        30.08F
HENDERSON      PTSUNNY   79  61  53 SW7       30.05F
OWENSBORO      PTSUNNY   78  60  53 W9        30.07S
HOPKINSVILLE   CLOUDY    80  54  40 W7        30.08F
BOWLING GREEN  PTSUNNY   81  54  39 N7        30.06F
GLASGOW        PTSUNNY   81  50  34 CALM      30.07F
$$

KYZ024-025-028>034-038-045-046-053-302300-
NORTH CENTRAL KENTUCKY

CITY           SKY/WX    TMP DP  RH WIND       PRES   REMARKS
LOUISVILLE/SDF MOSUNNY   82  55  39 W10       30.04F
LOUISVILLE/LOU SUNNY     80  54  40 W7        30.05S
FORT KNOX      MOSUNNY   79  60  51 W9        30.05F
$$

KYZ035>037-039>044-047>052-055>060-089>105-302300-
NORTHEAST KENTUCKY

CITY           SKY/WX    TMP DP  RH WIND       PRES   REMARKS
LEXINGTON      SUNNY     79  56  45 W10       30.07S
COVINGTON      PTSUNNY   78  59  51 W10       30.04S
FRANKFORT      SUNNY     78  56  46 SW9       30.05S
$$

KYZ054-064>069-076>088-106>120-302300-
SOUTHEAST KENTUCKY

CITY           SKY/WX    TMP DP  RH WIND       PRES   REMARKS
JACKSON        SUNNY     77  59  53 VRB3      30.08F
LONDON         MOSUNNY   79  56  45 SW7       30.09S
SOMERSET       SUNNY     75  55  50 W5        30.09F
MIDDLESBORO    MOSUNNY   78  55  46 S5        30.09F
MONTICELLO     PTCLDY    79  60  51 W6        30.10F
$$




USA.gov is the U.S. government's official web portal to all federal, state and local government web resources and services.